This is the latest recevied weather packets stored in our database for station/object KD8FRE. If no packets are shown the sender has not sent any weather packets the latest 10 day(s).
| Time | Temp. | Humidity | Pressure | Rain* | Wind** | Luminosity | Snow |
|---|---|---|---|---|---|---|---|
| 1777926240 | 23.89° C | 30% | 1000.7 hPa | 0 mm | - | 260 W/m² | - |
| 1777925936 | 23.89° C | 30% | 1000.8 hPa | 0 mm | - | 313 W/m² | - |
| 1777925634 | 23.89° C | 30% | 1000.8 hPa | 0 mm | - | 133 W/m² | - |
| 1777925331 | 23.33° C | 33% | 1000.9 hPa | 0 mm | - | 164 W/m² | - |
| 1777925028 | 23.89° C | 30% | 1000.8 hPa | 0 mm | - | 149 W/m² | - |
| 1777924725 | 23.89° C | 32% | 1001 hPa | 0 mm | - | 427 W/m² | - |
| 1777924420 | 23.33° C | 31% | 1001.1 hPa | 0 mm | - | 503 W/m² | - |
| 1777924117 | 23.89° C | 31% | 1001 hPa | 0 mm | - | 104 W/m² | - |
| 1777923813 | 24.44° C | 29% | 1001 hPa | 0 mm | - | 384 W/m² | - |
| 1777923509 | 24.44° C | 29% | 1001 hPa | 0 mm | - | 100 W/m² | - |
| 1777923207 | 23.89° C | 31% | 1001 hPa | 0 mm | - | 104 W/m² | - |
| 1777922906 | 23.89° C | 29% | 1001.1 hPa | 0 mm | - | 95 W/m² | - |
| 1777922603 | 23.33° C | 29% | 1001.1 hPa | 0 mm | - | 104 W/m² | - |
| 1777922301 | 22.78° C | 28% | 1001.3 hPa | 0 mm | - | 111 W/m² | - |
| 1777921998 | 23.33° C | 28% | 1001.3 hPa | 0 mm | - | 106 W/m² | - |
| 1777921694 | 22.78° C | 28% | 1001.5 hPa | 0 mm | - | 101 W/m² | - |
| 1777921390 | 23.33° C | 28% | 1001.5 hPa | 0 mm | - | 496 W/m² | - |
| 1777921087 | 22.78° C | 28% | 1001.5 hPa | 0 mm | - | 424 W/m² | - |
| 1777920784 | 23.33° C | 26% | 1001.5 hPa | 0 mm | - | 498 W/m² | - |
| 1777920480 | 23.33° C | 27% | 1001.7 hPa | 0 mm | - | 516 W/m² | - |
| 1777920176 | 22.78° C | 30% | 1001.8 hPa | 0 mm | - | 671 W/m² | - |
| 1777919871 | 22.78° C | 29% | 1001.9 hPa | 0 mm | - | 322 W/m² | - |
| 1777919568 | 22.78° C | 28% | 1001.8 hPa | 0 mm | - | 685 W/m² | - |
| 1777919267 | 22.78° C | 29% | 1001.9 hPa | 0 mm | - | 559 W/m² | - |
| 1777918963 | 22.78° C | 28% | 1001.8 hPa | 0 mm | - | 482 W/m² | - |
* Rain latest hour (hover to see other rain measurements)
** Current wind speed in m/s (hover to see current wind gust speed)